Weather History for CWWA - January, 2013

Change the Weather History Date:

Friday, January 11, 2013

  Actual Average Record
Temperature  
Mean Temperature 32 °F -  
Max Temperature 37 °F - - ()
Min Temperature 26 °F - - ()
Degree Days  
Heating Degree Days 34    
Moisture  
Dew Point 19 °F    
Average Humidity 64    
Maximum Humidity 79    
Minimum Humidity 27    
Precipitation  
Precipitation 0.00 in - - ()
Sea Level Pressure  
Sea Level Pressure 30.27 in    
Wind  
Wind Speed 1 mph ()    
Max Wind Speed 2 mph    
Max Gust Speed -    
T = Trace of Precipitation, MM = Missing Value Source: Averaged Metar Reports

Daily Weather History Graph

Daily Weather History Graph

Search for Another Location

Airport or City:

Trip Planner

Search our weather history database for the weather conditions in past years. The results will help you decide how hot, cold, wet, or windy it might be!

Date:

Astronomy

Jan. 11, 2013 Rise Set
Actual Time 8:05 AM PST 4:37 PM PST
Civil Twilight 7:28 AM PST 5:13 PM PST
Nautical Twilight 6:48 AM PST 5:53 PM PST
Astronomical Twilight 6:10 AM PST 6:32 PM PST
Moon 7:38 AM PST (1/11) 5:07 PM PST (1/11)
Length of Visible Light 9h 45m
Length of Day
8h 31m
New Moon, 0% of the Moon is Illuminated
Jan 11
New Moon
Jan 18
First Quarter
Jan 26
Full
Feb 3
Last Quarter
Feb 9
New

Hourly Weather History & Observations

Time (PST) Temp. Dew Point Humidity Pressure Visibility Wind Dir Wind Speed Gust Speed Precip Events Conditions
12:00 AM 28.6 °F 22.5 °F 78% 30.14 in - North 1.2 mph - N/A   Unknown
1:00 AM 28.0 °F 22.3 °F 79% 30.16 in - Calm Calm - N/A   Unknown
2:00 AM 27.7 °F 21.7 °F 78% 30.17 in - North 1.2 mph - N/A   Unknown
3:00 AM 28.2 °F 20.8 °F 74% 30.18 in - North 2.3 mph - N/A   Unknown
4:00 AM 28 °F 22 °F 69% 30.20 in - North 1.2 mph - -  
4:00 AM 27.7 °F 21.7 °F 78% 30.20 in - North 1.2 mph - N/A   Unknown
5:00 AM 27.1 °F 20.5 °F 76% 30.21 in - North 1.2 mph - N/A   Unknown
6:00 AM 27.0 °F 19.9 °F 75% 30.23 in - North 1.2 mph - N/A   Unknown
7:00 AM 26.6 °F 20.1 °F 77% 30.25 in - North 1.2 mph - N/A   Unknown
8:00 AM 26.8 °F 18.9 °F 72% 30.27 in - North 1.2 mph - N/A   Unknown
9:00 AM 27.9 °F 21.4 °F 77% 30.30 in - Calm Calm - N/A   Unknown
10:00 AM 30 °F 22 °F 62% 30.31 in - Calm Calm - -  
11:00 AM 35.1 °F 17.6 °F 49% 30.30 in - Calm Calm - N/A   Unknown
12:00 PM 33.1 °F 20.3 °F 59% 30.30 in - Calm Calm - N/A   Unknown
1:00 PM 34.7 °F 16.2 °F 47% 30.29 in - SSE 1.2 mph - N/A   Unknown
2:00 PM 36.7 °F 15.1 °F 41% 30.29 in - Calm Calm - N/A   Unknown
3:00 PM 35.6 °F 14.7 °F 42% 30.30 in - Calm Calm - N/A   Unknown
4:00 PM 34 °F 13 °F 27% 30.31 in - Calm Calm - -  
4:00 PM 33.8 °F 12.6 °F 42% 30.31 in - Calm Calm - N/A   Unknown
5:00 PM 31.6 °F 19.4 °F 61% 30.31 in - Calm Calm - N/A   Unknown
6:00 PM 30.6 °F 20.5 °F 66% 30.31 in - Calm Calm - N/A   Unknown
7:00 PM 30.4 °F 20.3 °F 66% 30.31 in - Calm Calm - N/A   Unknown
8:00 PM 29.8 °F 19.9 °F 67% 30.31 in - North 1.2 mph - N/A   Unknown
9:00 PM 29.7 °F 19.6 °F 66% 30.31 in - North 2.3 mph - N/A   Unknown
10:00 PM 29 °F 20 °F 57% 30.31 in - North 1.2 mph - -  
10:00 PM 28.6 °F 19.8 °F 70% 30.31 in - North 1.2 mph - N/A   Unknown
11:00 PM 27.9 °F 20.7 °F 74% 30.31 in - Calm Calm - N/A   Unknown